User: anonymous   Login
Location: Fiddletown
(38.4917°N, 120.6633°W)
Time: 15:35:54
(UTC-07:00)
Language:

Envisat - Orbit

View from above orbital plane
View from above orbital plane
View from above satellite
View from above satellite

Ground track
Ground track

The orbit data is extracted from the following two-line orbital elements,

1 27386U 02009A   17115.77892013 -.00000042 +00000-0 -18152-6 0  9990
2 27386 098.2371 163.2293 0001418 087.3249 272.8093 14.37893054793544
Epoch (UTC): 25 April 2017 18:41:38
Eccentricity: 0.0001418
inclination: 98.2371°
perigee height: 764 km
apogee height: 766 km
right ascension of ascending node: 163.2293°
argument of perigee: 87.3249°
revolutions per day: 14.37893054
mean anomaly at epoch: 272.8093°
orbit number at epoch: 79354

The dashed part of the orbit path shows where the satellite is in the earth's shadow,  

DLR